Flag for San Marino Weather past 2 weeks in San Marino, San Marino

43 °F


Feels Like: 43 °F
Forecast: 36 / 43 °F
Wind: No wind

Location: Rimini Airport

Current Time: Dec 1, 2015 at 8:49:43 AM

Latest Report: Dec 1, 2015 at 7:45 AM

Visibility: 0 mi

Pressure: 30.24 "Hg (27.87 "Hg at 666m altitude)

Humidity: 100%

Dew point: 43 °F

Location of San MarinoLocation

Historic Weather in San Marino — Graph


San Marino temperature yesterday

Maximum temperature yesterday: 54 °F (at 11:45 AM)
Minimum temperature yesterday: 37 °F (at 1:45 AM)
Average temperature yesterday: 46 °F

Past Weeks' High & Low Weather Summary

High66 °F (Nov 20, 10:45 PM)100% (Nov 16, 7:45 AM)30.30 "Hg (Nov 16, 7:45 AM)
Low37 °F (Nov 29, 5:15 AM)58% (Nov 26, 5:45 PM)29.15 "Hg (Nov 21, 1:45 PM)
Average50 °F91%29.95 "Hg
* Reported Nov 16 7:45 AM — Dec 1 7:15 AM, San Marino, Weather by CustomWeather, © 2015

Note: Actual official high and low records may vary slightly from our data, if they occured in-between our weather recording intervals... More about our weather records


San Marino weather history for previous 24 hours

Time TempWeatherWind HumidityBarometerVisibility
7:15 AM
Tue, Dec 1
43 °FFog.No wind100%30.24 "Hg0 mi
6:45 AM43 °FFog.2 mph100%30.21 "Hg0 mi
6:15 AM43 °FPassing clouds.1 mph100%30.21 "Hg1 mi
5:45 AM41 °FLight fog.No wind100%30.21 "Hg1 mi
4:45 AM43 °FFog.3 mph100%30.21 "Hg1 mi
4:15 AM43 °FFog.No wind100%30.21 "Hg2 mi
3:45 AM43 °FFog.1 mph100%30.21 "Hg2 mi
3:15 AM43 °FFog.2 mph100%30.21 "Hg3 mi
2:45 AM45 °FFog.1 mph100%30.21 "Hg3 mi
1:45 AM43 °FClear.1 mph100%30.21 "Hg4 mi
12:15 AM43 °FFog.3 mph100%30.24 "Hg1 mi
11:15 PM
Mon, Nov 30
43 °FFog.1 mph100%30.24 "Hg1 mi
10:45 PM43 °FFog.1 mph100%30.24 "Hg1 mi
10:15 PM43 °FFog.1 mph100%30.24 "Hg1 mi
9:45 PM41 °FFog.1 mph100%30.24 "Hg1 mi
9:15 PM45 °FFog.1 mph100%30.24 "Hg1 mi
8:45 PM43 °FFog.No wind100%30.24 "Hg1 mi
8:15 PM45 °FFog.1 mph100%30.21 "Hg1 mi
7:45 PM45 °FFog.2 mph100%30.24 "Hg1 mi
7:15 PM46 °FFog.3 mph100%30.24 "Hg1 mi
6:45 PM48 °FFog.No wind100%30.24 "Hg1 mi
6:15 PM48 °FFog.No wind100%30.24 "Hg1 mi
5:45 PM50 °FFog.No wind100%30.24 "Hg2 mi
5:15 PM52 °FFog.No wind100%30.24 "Hg2 mi
4:45 PM52 °FFog.No wind94%30.24 "Hg2 mi
4:15 PM54 °FFog.No wind88%30.24 "Hg3 mi
3:45 PM54 °FClear.1 mph88%30.24 "Hg4 mi
3:15 PM54 °FClear.No wind88%30.27 "Hg4 mi
2:45 PM54 °FClear.No wind88%30.27 "Hg4 mi
2:15 PM54 °FClear.1 mph82%30.24 "Hg4 mi
1:45 PM54 °FClear.2 mph82%30.27 "Hg4 mi
1:15 PM54 °FClear.6 mph88%30.27 "Hg4 mi
12:45 PM54 °FClear.3 mph88%30.27 "Hg4 mi
12:15 PM54 °FClear.5 mph88%30.27 "Hg4 mi
11:45 AM54 °FClear.5 mph88%30.27 "Hg4 mi
11:15 AM52 °FClear.3 mph94%30.30 "Hg5 mi
10:45 AM50 °FClear.2 mph100%30.30 "Hg5 mi
10:15 AM48 °FClear.No wind100%30.27 "Hg5 mi
9:45 AM46 °FClear.No wind100%30.27 "Hg5 mi
9:15 AM41 °FClear.No wind100%30.27 "Hg4 mi
8:45 AM39 °FClear.No wind100%30.27 "Hg4 mi
Weather by CustomWeather, © 2015

See weather overviewHow to use our weather pages